This demonstration page uses our WeatherBlox Daily Observations layout. Learn more.

39.51506, -84.39828

Hourly Observations for November 27, 2019

Temp ( °F °C ) Dew Point ( °F °C ) Humidity (%) Winds ( mph kmh ) Pressure ( in mb ) Visibility ( mi km ) Precip ( " mm )
12:15 am 00:15 Cloudy with Light Rain 50 9.9 48 8.9 94 94 S 10 17 29.79 1009 7 11.26538 0 0
12:35 am 00:35 Cloudy with Rain 50 10 48 9.1 94 94 S 10 17 29.79 1009 7 11.26538 0 0
12:55 am 00:55 Cloudy with Rain 50 10 49 9.3 95 95 S 10 17 29.78 1008 5 8.0467 0 0
1:15 am 01:15 Cloudy with Light Rain 50 10.2 49 9.6 96 96 SE 9 15 29.71 1006 7 11.26538 0 0
1:35 am 01:35 Cloudy 50 10.1 49 9.4 95 95 S 8 13 29.7 1006 10 16.0934 0 0
1:55 am 01:55 Cloudy with Light Rain 51 10.5 49 9.7 95 95 SSE 9 15 29.7 1006 10 16.0934 0 0
2:15 am 02:15 Cloudy with Light Rain 52 10.9 50 10.1 95 95 S 7 11 29.7 1006 7 11.26538 0 0
2:35 am 02:35 Cloudy with Light Rain 52 10.9 50 10.2 95 95 S 10 17 29.67 1005 10 16.0934 0 0
2:55 am 02:55 Cloudy with Rain 51 10.8 50 10.2 96 96 SSE 9 15 29.67 1005 4 6.43736 0 0
3:15 am 03:15 Cloudy 52 10.9 51 10.3 96 96 S 10 17 29.66 1004 10 16.0934 0 0
3:35 am 03:35 Cloudy 53 11.5 51 10.5 94 94 S 15 24 29.65 1004 10 16.0934 0 0
3:55 am 03:55 Cloudy 53 11.7 51 10.5 92 92 S 12 19 29.64 1004 10 16.0934 0 0
4:15 am 04:15 Cloudy 53 11.7 51 10.5 92 92 S 14 22 29.63 1004 10 16.0934 0 0
4:35 am 04:35 Cloudy 53 11.9 51 10.7 92 92 S 15 24 29.61 1003 10 16.0934 0 0
4:55 am 04:55 Cloudy with Light Rain 54 12 52 10.9 93 93 S 14 22 29.59 1002 10 16.0934 0 0
5:15 am 05:15 Cloudy with Light Drizzle 54 12.4 52 11.2 92 92 S 10 17 29.56 1001 10 16.0934 0 0
5:35 am 05:35 Cloudy 55 12.7 53 11.4 92 92 S 14 22 29.56 1001 10 16.0934 0 0
5:55 am 05:55 Cloudy 55 12.9 53 11.6 92 92 SSE 12 19 29.54 1000 10 16.0934 0 0
6:15 am 06:15 Cloudy 56 13.1 53 11.8 92 92 S 15 24 29.54 1000 10 16.0934 0 0
6:35 am 06:35 Cloudy 56 13.4 54 12.1 92 92 S 15 24 29.53 1000 10 16.0934 0 0
6:55 am 06:55 Cloudy 57 13.7 54 12.2 91 91 S 17 28 29.52 1000 10 16.0934 0 0
7:15 am 07:15 Cloudy with Heavy Rain 56 13.5 54 12.4 93 93 W 17 28 29.57 1001 3.5 5.63269 0 0
7:35 am 07:35 Cloudy with Light Rain 56 13.2 51 10.6 84 84 SSW 15 24 29.55 1001 10 16.0934 0 0
7:55 am 07:55 Partly Cloudy 55 12.9 49 9.5 80 80 SW 14 22 29.55 1001 10 16.0934 0 0
8:15 am 08:15 Sunny 55 12.8 47 8.6 76 76 SW 14 22 29.56 1001 10 16.0934 0 0
8:35 am 08:35 Sunny 56 13.5 45 7.1 65 65 SW 17 28 29.57 1001 10 16.0934 0 0
8:55 am 08:55 Sunny 56 13.6 40 4.6 55 55 WSW 30 48 29.58 1002 10 16.0934 0 0
9:15 am 09:15 Sunny 57 13.8 38 3.1 49 49 SW 24 39 29.6 1002 10 16.0934 0 0
9:35 am 09:35 Partly Cloudy 57 13.9 38 3.5 50 50 WSW 24 39 29.62 1003 10 16.0934 0 0
9:55 am 09:55 Partly Cloudy 56 13.3 38 3.3 51 51 WSW 31 50 29.64 1004 10 16.0934 0 0
10:15 am 10:15 Mostly Cloudy 57 13.9 38 3.4 49 49 WSW 31 50 29.65 1004 10 16.0934 0 0
10:35 am 10:35 Partly Cloudy 54 12.3 34 0.9 46 46 WSW 32 52 29.68 1005 10 16.0934 0 0
10:55 am 10:55 Mostly Cloudy 53 11.8 34 1.1 48 48 WSW 29 46 29.71 1006 10 16.0934 0 0
11:15 am 11:15 Mostly Cloudy 50 10.2 33 0.8 52 52 WSW 32 52 29.75 1007 10 16.0934 0 0
11:35 am 11:35 Cloudy 51 10.3 34 0.9 52 52 WSW 36 57 29.75 1007 10 16.0934 0 0
11:55 am 11:55 Cloudy 50 9.9 33 0.6 53 53 WSW 30 48 29.78 1008 10 16.0934 0 0
12:15 pm 12:15 Mostly Cloudy 49 9.3 31 -0.6 50 50 WSW 32 52 29.78 1008 10 16.0934 0 0
12:35 pm 12:35 Mostly Cloudy 49 9.4 31 -0.4 51 51 WSW 31 50 29.79 1009 10 16.0934 0 0
12:55 pm 12:55 Cloudy 48 9 32 -0.2 53 53 SW 31 50 29.8 1009 10 16.0934 0 0
1:15 pm 13:15 Cloudy 48 8.7 31 -0.5 53 53 WSW 26 43 29.81 1010 10 16.0934 0 0
1:35 pm 13:35 Cloudy 48 8.7 31 -0.3 54 54 WSW 30 48 29.82 1010 10 16.0934 0 0
1:55 pm 13:55 Cloudy 46 7.9 32 -0.2 57 57 SW 29 46 29.84 1011 10 16.0934 0 0
2:15 pm 14:15 Cloudy 46 7.5 31 -0.6 57 57 WSW 31 50 29.87 1011 10 16.0934 0 0
2:35 pm 14:35 Cloudy 45 7.1 30 -0.9 57 57 WSW 23 37 29.89 1012 10 16.0934 0 0
2:55 pm 14:55 Cloudy 44 6.9 30 -1.1 57 57 WSW 26 43 29.91 1013 10 16.0934 0 0
3:15 pm 15:15 Cloudy 44 6.6 30 -1.2 58 58 W 21 33 29.93 1013 10 16.0934 0 0
3:35 pm 15:35 Cloudy 44 6.6 30 -1.3 57 57 WSW 24 39 29.94 1014 10 16.0934 0 0
3:55 pm 15:55 Cloudy 44 6.6 30 -1.2 58 58 WSW 18 30 29.96 1014 10 16.0934 0 0
4:15 pm 16:15 Cloudy 44 6.6 30 -1.3 57 57 WSW 22 35 29.97 1015 10 16.0934 0 0
4:35 pm 16:35 Cloudy 44 6.6 30 -1.3 57 57 WSW 26 43 29.99 1015 10 16.0934 0 0
4:55 pm 16:55 Cloudy 44 6.6 29 -1.7 56 56 WSW 22 35 30.01 1016 10 16.0934 0 0
5:15 pm 17:15 Cloudy 44 6.4 29 -1.6 57 57 WSW 17 28 30.02 1017 10 16.0934 0 0
5:35 pm 17:35 Cloudy 44 6.4 29 -1.6 57 57 W 26 43 30.04 1017 10 16.0934 0 0
5:55 pm 17:55 Cloudy 43 6.3 29 -1.5 58 58 WSW 24 39 30.05 1018 10 16.0934 0 0
6:15 pm 18:15 Cloudy 43 6.1 29 -1.4 59 59 WSW 20 31 30.05 1018 10 16.0934 0 0
6:35 pm 18:35 Cloudy 43 6.1 29 -1.4 59 59 W 22 35 30.07 1018 10 16.0934 0 0
6:55 pm 18:55 Cloudy 43 6.1 29 -1.5 59 59 W 22 35 30.07 1018 10 16.0934 0 0
7:15 pm 19:15 Cloudy 43 6 29 -1.4 59 59 WSW 25 41 30.09 1019 10 16.0934 0 0
7:35 pm 19:35 Cloudy 42 5.8 29 -1.6 59 59 WSW 29 46 30.09 1019 10 16.0934 0 0
7:55 pm 19:55 Cloudy 42 5.8 29 -1.6 59 59 WSW 29 46 30.1 1019 10 16.0934 0 0
8:15 pm 20:15 Cloudy 42 5.8 29 -1.6 59 59 WSW 24 39 30.12 1020 10 16.0934 0 0
8:35 pm 20:35 Cloudy 42 5.7 29 -1.5 60 60 WSW 18 30 30.13 1020 10 16.0934 0 0
8:55 pm 20:55 Cloudy 42 5.5 29 -1.5 61 61 W 21 33 30.14 1021 10 16.0934 0 0
9:15 pm 21:15 Cloudy 42 5.5 29 -1.5 61 61 WSW 23 37 30.16 1021 10 16.0934 0 0
9:35 pm 21:35 Cloudy 42 5.3 29 -1.4 62 62 W 13 20 30.17 1022 10 16.0934 0 0
9:55 pm 21:55 Cloudy 41 5.2 30 -1.1 64 64 W 18 30 30.18 1022 10 16.0934 0 0
10:15 pm 22:15 Cloudy 41 5.1 30 -1.3 64 64 W 18 30 30.19 1022 10 16.0934 0 0
10:35 pm 22:35 Cloudy 41 4.9 29 -1.8 62 62 W 20 31 30.2 1023 10 16.0934 0 0
10:55 pm 22:55 Cloudy 41 4.8 29 -1.9 62 62 W 18 30 30.22 1023 10 16.0934 0 0
11:15 pm 23:15 Cloudy 40 4.7 29 -1.8 63 63 W 22 35 30.23 1024 10 16.0934 0 0
11:35 pm 23:35 Cloudy 40 4.5 29 -1.7 64 64 W 23 37 30.25 1024 10 16.0934 0 0
11:55 pm 23:55 Cloudy 39 4.1 29 -1.7 66 66 W 16 26 30.26 1025 10 16.0934 0 0

Powered by AerisWeather